Tracking 25734 objects as of 29-May-2022
HD Live streaming from Space Station
objects crossing your sky now

SL-12 R/B(2)

Track SL-12 R/B(2) now!


NORAD ID: 22883
Int'l Code: 1993-069D
Perigee: 35,698.4 km
Apogee: 35,769.9 km
Inclination: 14.5 °
Period: 1,433.1 minutes
Semi major axis: 42105 km
RCS: 3.8288 m2 (large)
Launch date: October 28, 1993
Source: Commonwealth of Independent States (former USSR) (CIS)
Launch site: TYURATAM MISSILE AND SPACE COMPLEX (TTMTR)

Note: This is a ROCKET BODY
aabbcc
Your satellite tracking list
Your tracking list is empty




NASA's NSSDC Master Catalog

Two Line Element Set (TLE):
1 22883U 93069D   22148.31223984  .00000093  00000-0  00000-0 0  9991
2 22883  14.5395 358.0700 0008491  52.3690 154.4524  1.00484591104183
Source of the keplerian elements: AFSPC